Regional Weather Roundup
Issued by NWS

Home | Current Version | Previous Version | Graphics & Text | Print | Product List | Glossary On
Versions: 1 2 3 4 5 6 7 8 9 10 11 12 13 14 15 16 17 18 19 20 21 22 23 24 25 26 27 28 29 30 31 32 33 34 35 36 37 38 39 40 41 42 43 44 45 46 47 48 49 50
390
ASUS44 KLIX 191012
RWRLA
LOUISIANA WEATHER ROUNDUP
NATIONAL WEATHER SERVICE NEW ORLEANS LA
500 AM CDT SUN APR 19 2015

NOTE: "FAIR" INDICATES FEW OR NO CLOUDS BELOW 12,000 FEET WITH NO
      SIGNIFICANT WEATHER AND/OR OBSTRUCTIONS TO VISIBILITY.
      SKY/WX - SKY CONDITION AND SIGNIFICANT WEATHER.
      TMP - AIR TEMPERATURE.    DP   - DEWPOINT TEMPERATURE.
      RH  - RELATIVE HUMIDITY.  PRES - PRESSURE.
      HX  - HEAT INDEX.         WCI  - WIND CHILL INDEX.

*  THESE STATIONS ARE NOT NWS OR FAA STATIONS AND ARE NOT UNDER
   NWS QUALITY CONTROL.

LAZ040-048-061>063-065-066-069-191100-
SOUTHEAST LOUISIANA

CITY           SKY/WX    TMP DP  RH WIND       PRES   REMARKS
N.O. AUDUBON     N/A     70  68  94 MISG        N/A
N.O. INTL ARPT MOCLDY    71  68  90 W5        29.78F
N.O. LAKEFRONT MOCLDY    75  70  84 W12       29.78F
SLIDELL        CLOUDY    73  72  96 VRB3      29.78F
BATON ROUGE    CLOUDY    70  68  93 SW9       29.80S
BOOTHVILLE     CLOUDY    72  71  97 NW5       29.77F
BELLE CHASSE   CLOUDY    70  68  93 CALM      29.78F
BOGALUSA*        N/A     71  67  88 SW3       29.80S
GALLIANO*      CLOUDY    70  69  96 CALM      29.79F
NEW ROADS*     FAIR      69  68  95 SW8       29.80S
GONZALES*      CLOUDY    71  71 100 W3        29.80R
HAMMOND*       CLOUDY    72  68  88 W3        29.81R
HOUMA*         CLOUDY    71  70  99 CALM      29.79S
PORT FOURCHON* NOT AVBL

$$

LAZ041-044-053-054-191100-
SOUTHWEST LOUISIANA

CITY           SKY/WX    TMP DP  RH WIND       PRES   REMARKS
LAKE CHARLES   CLEAR     61  59  93 SE6       29.78F
LAFAYETTE      CLEAR     70  67  90 W8        29.81S
PATTERSON      PTCLDY    70  68  94 W12       29.82R
SALT POINT       N/A     72  70  93 W9        29.80R
NEW IBERIA     PTCLDY    70  68  93 W8        29.82S
CHENAULT AIRPK PTCLDY    63  61  94 E3        29.79F

$$

LAZ027-028-191100-
CENTRAL LOUISIANA

CITY           SKY/WX    TMP DP  RH WIND       PRES   REMARKS
FORT POLK      MOCLDY    60  59  96 SE5       29.75F
ALEXANDRIA INT MOCLDY    61  59  93 SE3       29.73F
ALEXANDRIA     CLOUDY    61  60  97 W3        29.76F

$$

LAZ001-002-191100-
NORTHWEST LOUISIANA

CITY           SKY/WX    TMP DP  RH WIND       PRES   REMARKS
SHREVEPORT     CLOUDY    59  59 100 CALM      29.71F
BARKSDALE AFB  CLOUDY    58  58 100 CALM      29.71F
DTN SHREVEPORT CLOUDY    59  56  89 CALM      29.71F

$$

LAZ014-016-191100-
NORTHEAST LOUISIANA

CITY           SKY/WX    TMP DP  RH WIND       PRES   REMARKS
MONROE         CLOUDY    64  61  90 NW7       29.72F
TALLULAH       TSTM      65  62  90 SW12G23   29.75R FOG

$$




USA.gov is the U.S. government's official web portal to all federal, state and local government web resources and services.